Portada
METAR-TAF:

METAR-TAF

Aeropuertos :

Sirri, Irán

latitud: 25-54-34N, longitud: 054-32-22E, altitud: 13 m

Observación

El informe se hizo hace 1 hora y 48 minutos, a las 15:00 UTC
Viento 14 kt del oeste
Temperatura 20°C
Humedad 49%
Presión 1010 hPa
Visibilidad 10 km o más
sin nubes por debajo de 1500 m y sin presencia de cumulonimbus.

METAR: OIBS 181500Z 27014KT CAVOK 20/09 Q1010

Hora: 20:18 (16:48 UTC)


TAF: falta

Observaciones y pronósticos meteorológicos de más de 4000 aeropuertos (mensajes METAR y TAF).

Los puntos amarillos y rojos representan las estaciones disponibles.

Ponga el ratón en el punto deseado para ver el nombre de la estación.

Haga clic para ver las observaciones y los pronósticos meteorológicos.

Para cambiar el mapa : haga clic en los botones verdes con una cruz de color negro para hacer un zoom, en el botón verde con un guión para alejar o en las flechas verdes para mapas adyacentes.


METAR-TAF: